VOZ63 YMML-YMLT

Flight info

Callsign VOZ63
Flight time 0h 51m
Altitude 35000
Route SUNTI4/34 SUNTI H169 IRSOM W105 LT
Aircraft B738/M-SDE2E3FGHIRWXY/LB1

Departure

Time 2026-04-23 10:48
Airport Melbourne Airport (YMML)

Arrival

Time 2026-04-23 11:39
Airport Launceston Airport (YMLT)
Time Latitude Longitude Altitude Speed Heading
2026-04-23 10:32 -37.67122 144.84634 388 ft 0 kts 352°
2026-04-23 10:41 -37.67135 144.84637 388 ft 2 kts 352°
2026-04-23 10:41 -37.67151 144.84639 387 ft 2 kts 352°
2026-04-23 10:41 -37.67167 144.84643 387 ft 2 kts 339°
2026-04-23 10:41 -37.67181 144.84653 387 ft 2 kts 323°
2026-04-23 10:42 -37.67193 144.84666 387 ft 2 kts 310°
2026-04-23 10:42 -37.67199 144.84676 387 ft 2 kts 285°
2026-04-23 10:42 -37.67198 144.84668 387 ft 1 kts 276°
2026-04-23 10:42 -37.67198 144.84667 387 ft 0 kts 276°
2026-04-23 10:43 -37.67198 144.84666 387 ft 0 kts 276°
2026-04-23 10:43 -37.67198 144.84645 386 ft 5 kts 265°
2026-04-23 10:44 -37.67205 144.84587 385 ft 9 kts 262°
2026-04-23 10:44 -37.67206 144.84492 384 ft 13 kts 286°
2026-04-23 10:44 -37.67206 144.84366 382 ft 16 kts 266°
2026-04-23 10:44 -37.67284 144.84287 379 ft 16 kts 180°
2026-04-23 10:45 -37.67396 144.84306 377 ft 17 kts 171°
2026-04-23 10:45 -37.67513 144.84328 374 ft 17 kts 171°
2026-04-23 10:45 -37.67636 144.84351 370 ft 19 kts 171°
2026-04-23 10:45 -37.67770 144.84366 365 ft 20 kts 189°
2026-04-23 10:46 -37.67858 144.84236 361 ft 21 kts 266°
2026-04-23 10:46 -37.67878 144.84064 356 ft 16 kts 261°
2026-04-23 10:46 -37.67866 144.83968 358 ft 8 kts 332°
2026-04-23 10:46 -37.67854 144.83965 357 ft 0 kts 348°
2026-04-23 10:47 -37.67836 144.83961 360 ft 13 kts 349°
2026-04-23 10:47 -37.67541 144.83901 369 ft 74 kts 351°
2026-04-23 10:47 -37.66840 144.83764 392 ft 128 kts 352°
2026-04-23 10:48 -37.65815 144.83586 561 ft 164 kts 351°
2026-04-23 10:48 -37.64604 144.83319 1060 ft 185 kts 349°
2026-04-23 10:48 -37.63290 144.82984 1717 ft 201 kts 349°
2026-04-23 10:48 -37.61868 144.82672 2463 ft 212 kts 353°
2026-04-23 10:49 -37.60330 144.82450 2995 ft 232 kts 358°
2026-04-23 10:49 -37.58698 144.82654 3769 ft 243 kts 17°
2026-04-23 10:49 -37.57086 144.83486 4455 ft 258 kts 26°
2026-04-23 10:49 -37.55449 144.84486 5346 ft 264 kts 27°
2026-04-23 10:50 -37.53794 144.85531 6270 ft 267 kts 27°
2026-04-23 10:50 -37.52122 144.86578 7197 ft 270 kts 27°
2026-04-23 10:50 -37.50422 144.87624 8077 ft 274 kts 26°
2026-04-23 10:50 -37.48712 144.88669 8944 ft 278 kts 28°
2026-04-23 10:51 -37.47172 144.90186 9839 ft 281 kts 51°
2026-04-23 10:51 -37.46314 144.92353 10652 ft 286 kts 77°
2026-04-23 10:51 -37.46352 144.94854 11407 ft 291 kts 105°
2026-04-23 10:51 -37.47351 144.97077 12155 ft 298 kts 133°
2026-04-23 10:52 -37.49126 144.98505 12620 ft 315 kts 162°
2026-04-23 10:52 -37.51327 144.99050 13064 ft 331 kts 172°
2026-04-23 10:52 -37.53682 144.99312 13461 ft 348 kts 176°
2026-04-23 10:52 -37.56156 144.99483 13823 ft 365 kts 176°
2026-04-23 10:53 -37.58743 144.99719 14242 ft 378 kts 174°
2026-04-23 10:53 -37.61384 145.00058 14779 ft 386 kts 173°
2026-04-23 10:53 -37.64120 145.00457 14995 ft 403 kts 173°
2026-04-23 10:53 -37.66933 145.00860 15458 ft 410 kts 174°
2026-04-23 10:54 -37.69799 145.01240 16014 ft 415 kts 174°
2026-04-23 10:54 -37.72694 145.01348 16602 ft 418 kts 184°
2026-04-23 10:54 -37.75595 145.00983 17174 ft 421 kts 186°
2026-04-23 10:54 -37.78519 145.00563 17758 ft 424 kts 187°
2026-04-23 10:55 -37.81465 145.00108 18328 ft 427 kts 187°
2026-04-23 10:55 -37.84420 144.99645 18856 ft 430 kts 187°
2026-04-23 10:55 -37.87399 144.99191 19344 ft 433 kts 187°
2026-04-23 10:55 -37.90369 144.98751 19828 ft 435 kts 187°
2026-04-23 10:56 -37.93387 144.98309 20317 ft 438 kts 187°
2026-04-23 10:56 -37.96433 144.98085 20785 ft 440 kts 178°
2026-04-23 10:56 -37.99481 144.98587 21256 ft 443 kts 167°
2026-04-23 10:56 -38.02439 144.99724 21689 ft 446 kts 162°
2026-04-23 10:57 -38.05381 145.01002 22123 ft 448 kts 161°
2026-04-23 10:57 -38.08325 145.02354 22547 ft 450 kts 160°
2026-04-23 10:57 -38.11278 145.03717 22957 ft 452 kts 161°
2026-04-23 10:57 -38.14248 145.05055 23348 ft 454 kts 161°
2026-04-23 10:58 -38.17237 145.06369 23730 ft 457 kts 161°
2026-04-23 10:58 -38.20248 145.07687 24076 ft 459 kts 161°
2026-04-23 10:58 -38.23272 145.09024 24391 ft 461 kts 161°
2026-04-23 10:58 -38.26305 145.10382 24708 ft 462 kts 161°
2026-04-23 10:59 -38.29338 145.11746 25025 ft 464 kts 161°
2026-04-23 10:59 -38.32387 145.13114 25344 ft 465 kts 161°
2026-04-23 10:59 -38.35452 145.14483 25658 ft 467 kts 161°
2026-04-23 10:59 -38.38522 145.15853 25968 ft 468 kts 161°
2026-04-23 11:00 -38.41605 145.17232 26302 ft 469 kts 161°
2026-04-23 11:00 -38.44668 145.18606 26724 ft 467 kts 161°
2026-04-23 11:00 -38.47725 145.19981 27123 ft 465 kts 161°
2026-04-23 11:00 -38.50781 145.21356 27539 ft 464 kts 162°
2026-04-23 11:01 -38.53818 145.22710 27954 ft 462 kts 162°
2026-04-23 11:01 -38.56825 145.24027 28358 ft 461 kts 162°
2026-04-23 11:01 -38.59856 145.25343 28783 ft 460 kts 162°
2026-04-23 11:01 -38.62876 145.26662 29195 ft 458 kts 162°
2026-04-23 11:02 -38.65891 145.27991 29647 ft 456 kts 162°
2026-04-23 11:02 -38.68875 145.29314 30068 ft 454 kts 162°
2026-04-23 11:02 -38.71857 145.30635 30474 ft 453 kts 162°
2026-04-23 11:02 -38.74834 145.31951 30822 ft 451 kts 162°
2026-04-23 11:03 -38.77799 145.33259 31170 ft 449 kts 162°
2026-04-23 11:03 -38.80750 145.34563 31521 ft 448 kts 162°
2026-04-23 11:03 -38.83689 145.35864 31862 ft 446 kts 162°
2026-04-23 11:03 -38.86617 145.37164 32212 ft 445 kts 162°
2026-04-23 11:04 -38.89538 145.38461 32551 ft 443 kts 163°
2026-04-23 11:04 -38.92447 145.39753 32869 ft 442 kts 163°
2026-04-23 11:04 -38.95356 145.41046 33194 ft 441 kts 163°
2026-04-23 11:04 -38.98245 145.42330 33533 ft 440 kts 163°
2026-04-23 11:05 -39.01138 145.43619 33875 ft 438 kts 163°
2026-04-23 11:05 -39.04014 145.44900 34201 ft 437 kts 163°
2026-04-23 11:05 -39.06880 145.46179 34511 ft 436 kts 163°
2026-04-23 11:05 -39.09743 145.47457 34789 ft 434 kts 163°
2026-04-23 11:06 -39.15439 145.50003 35313 ft 433 kts 163°
2026-04-23 11:06 -39.18257 145.51263 35375 ft 436 kts 163°
2026-04-23 11:07 -39.24000 145.53837 35389 ft 436 kts 163°
2026-04-23 11:07 -39.29706 145.56401 35389 ft 433 kts 163°
2026-04-23 11:08 -39.35376 145.58950 35399 ft 431 kts 163°
2026-04-23 11:08 -39.41038 145.61499 35398 ft 431 kts 163°
2026-04-23 11:09 -39.46702 145.64055 35393 ft 431 kts 163°
2026-04-23 11:09 -39.52364 145.66615 35394 ft 431 kts 163°
2026-04-23 11:10 -39.58031 145.69181 35397 ft 432 kts 163°
2026-04-23 11:10 -39.63712 145.71758 35410 ft 432 kts 163°
2026-04-23 11:11 -39.69370 145.74329 35399 ft 430 kts 163°
2026-04-23 11:11 -39.75017 145.76900 35398 ft 429 kts 163°
2026-04-23 11:12 -39.80666 145.79475 35396 ft 431 kts 163°
2026-04-23 11:12 -39.86351 145.82071 35404 ft 434 kts 163°
2026-04-23 11:13 -39.92045 145.84678 35403 ft 433 kts 163°
2026-04-23 11:13 -39.97718 145.87280 35404 ft 432 kts 163°
2026-04-23 11:14 -40.03387 145.89886 35400 ft 433 kts 163°
2026-04-23 11:14 -40.09078 145.92526 35407 ft 435 kts 163°
2026-04-23 11:15 -40.14740 145.95157 35403 ft 434 kts 163°
2026-04-23 11:15 -40.20415 145.97792 35403 ft 432 kts 163°
2026-04-23 11:16 -40.26095 146.00436 35402 ft 434 kts 163°
2026-04-23 11:16 -40.31799 146.03097 35403 ft 436 kts 163°
2026-04-23 11:17 -40.37512 146.05768 35404 ft 435 kts 163°
2026-04-23 11:17 -40.43207 146.08433 35406 ft 435 kts 163°
2026-04-23 11:18 -40.48919 146.11112 35415 ft 436 kts 163°
2026-04-23 11:18 -40.54642 146.13800 35410 ft 436 kts 163°
2026-04-23 11:19 -40.59391 146.16036 35407 ft 436 kts 163°
2026-04-23 11:19 -40.65121 146.18737 35408 ft 437 kts 163°
2026-04-23 11:20 -40.71762 146.21874 35418 ft 437 kts 163°
2026-04-23 11:20 -40.76557 146.24142 35417 ft 437 kts 163°
2026-04-23 11:21 -40.82255 146.26844 35337 ft 439 kts 163°
2026-04-23 11:21 -40.85163 146.28221 34409 ft 448 kts 163°
2026-04-23 11:21 -40.88119 146.29625 33455 ft 453 kts 163°
2026-04-23 11:21 -40.91093 146.31040 32557 ft 456 kts 163°
2026-04-23 11:22 -40.94084 146.32466 31643 ft 460 kts 162°
2026-04-23 11:22 -40.97113 146.33909 30687 ft 465 kts 162°
2026-04-23 11:22 -41.00173 146.35368 29588 ft 470 kts 162°
2026-04-23 11:22 -41.03266 146.36844 28513 ft 473 kts 162°
2026-04-23 11:23 -41.06369 146.38327 27412 ft 477 kts 162°
2026-04-23 11:23 -41.09519 146.39835 26258 ft 482 kts 162°
2026-04-23 11:23 -41.12673 146.41347 25536 ft 479 kts 161°
2026-04-23 11:23 -41.15723 146.43114 24803 ft 479 kts 152°
2026-04-23 11:24 -41.18476 146.45610 23997 ft 481 kts 141°
2026-04-23 11:24 -41.20860 146.48629 23422 ft 474 kts 136°
2026-04-23 11:24 -41.23138 146.51722 22923 ft 465 kts 135°
2026-04-23 11:24 -41.25358 146.54850 22012 ft 454 kts 134°
2026-04-23 11:25 -41.27479 146.57853 20926 ft 447 kts 134°
2026-04-23 11:25 -41.29625 146.60837 20220 ft 444 kts 135°
2026-04-23 11:25 -41.31763 146.63766 19656 ft 440 kts 135°
2026-04-23 11:25 -41.33893 146.66676 19072 ft 435 kts 135°
2026-04-23 11:26 -41.35987 146.69559 18337 ft 431 kts 135°
2026-04-23 11:26 -41.38041 146.72411 17392 ft 423 kts 135°
2026-04-23 11:26 -41.40074 146.75241 16269 ft 418 kts 135°
2026-04-23 11:26 -41.42069 146.78015 15198 ft 413 kts 135°
2026-04-23 11:27 -41.44051 146.80766 14143 ft 408 kts 134°
2026-04-23 11:27 -41.46017 146.83493 13290 ft 408 kts 135°
2026-04-23 11:27 -41.47975 146.86214 12687 ft 405 kts 135°
2026-04-23 11:27 -41.49918 146.88920 12077 ft 402 kts 134°
2026-04-23 11:28 -41.51833 146.91591 11769 ft 392 kts 134°
2026-04-23 11:28 -41.53678 146.94168 11640 ft 376 kts 135°
2026-04-23 11:28 -41.55449 146.96642 11543 ft 361 kts 135°
2026-04-23 11:28 -41.57149 146.99018 11461 ft 346 kts 135°
2026-04-23 11:29 -41.58779 147.01297 11393 ft 331 kts 135°
2026-04-23 11:29 -41.60339 147.03479 11301 ft 314 kts 135°
2026-04-23 11:29 -41.61795 147.05519 11030 ft 300 kts 135°
2026-04-23 11:29 -41.63215 147.07509 10603 ft 293 kts 135°
2026-04-23 11:30 -41.64615 147.09470 10121 ft 290 kts 135°
2026-04-23 11:30 -41.66002 147.11416 9536 ft 288 kts 135°
2026-04-23 11:30 -41.67386 147.13359 8970 ft 288 kts 135°
2026-04-23 11:30 -41.68768 147.15301 8392 ft 289 kts 135°
2026-04-23 11:31 -41.70155 147.17253 7835 ft 290 kts 135°
2026-04-23 11:31 -41.71549 147.19213 7318 ft 293 kts 135°
2026-04-23 11:31 -41.72951 147.21188 7006 ft 292 kts 135°
2026-04-23 11:31 -41.74352 147.23163 6673 ft 293 kts 135°
2026-04-23 11:32 -41.75756 147.25143 6353 ft 293 kts 135°
2026-04-23 11:32 -41.77070 147.27117 6218 ft 280 kts 124°
2026-04-23 11:32 -41.77636 147.29483 6080 ft 257 kts 85°
2026-04-23 11:32 -41.77145 147.31586 5923 ft 222 kts 43°
2026-04-23 11:33 -41.76090 147.32913 5738 ft 200 kts 26°
2026-04-23 11:33 -41.74948 147.33913 5407 ft 194 kts 22°
2026-04-23 11:33 -41.73814 147.34892 5057 ft 193 kts 24°
2026-04-23 11:33 -41.72648 147.35654 4717 ft 178 kts
2026-04-23 11:34 -41.71507 147.35583 4478 ft 159 kts 335°
2026-04-23 11:34 -41.70569 147.34893 4150 ft 153 kts 325°
2026-04-23 11:34 -41.69671 147.34121 3793 ft 154 kts 325°
2026-04-23 11:34 -41.68773 147.33342 3458 ft 153 kts 326°
2026-04-23 11:35 -41.67873 147.32574 3108 ft 153 kts 327°
2026-04-23 11:35 -41.66991 147.31828 2965 ft 144 kts 328°
2026-04-23 11:35 -41.66113 147.31077 2951 ft 161 kts 328°
2026-04-23 11:35 -41.65174 147.30271 2876 ft 156 kts 328°
2026-04-23 11:36 -41.64256 147.29481 2710 ft 160 kts 328°
2026-04-23 11:36 -41.63337 147.28690 2488 ft 154 kts 327°
2026-04-23 11:36 -41.62427 147.27906 2298 ft 158 kts 328°
2026-04-23 11:36 -41.61481 147.27092 2063 ft 160 kts 328°
2026-04-23 11:37 -41.60582 147.26318 1844 ft 151 kts 328°
2026-04-23 11:37 -41.59695 147.25555 1633 ft 151 kts 328°
2026-04-23 11:37 -41.58827 147.24809 1427 ft 148 kts 327°
2026-04-23 11:37 -41.57965 147.24068 1236 ft 145 kts 326°
2026-04-23 11:38 -41.57118 147.23340 1043 ft 144 kts 326°
2026-04-23 11:38 -41.56288 147.22637 886 ft 143 kts 327°
2026-04-23 11:38 -41.55436 147.21899 682 ft 145 kts 326°
2026-04-23 11:38 -41.54640 147.21206 592 ft 115 kts 326°
2026-04-23 11:39 -41.54158 147.20807 591 ft 50 kts 329°
2026-04-23 11:39 -41.54011 147.20642 590 ft 9 kts 246°
2026-04-23 11:39 -41.54069 147.20569 584 ft 16 kts 211°
2026-04-23 11:39 -41.54162 147.20615 583 ft 15 kts 146°
2026-04-23 11:40 -41.54222 147.20642 583 ft 5 kts 226°
2026-04-23 11:40 -41.54218 147.20608 583 ft 3 kts 288°
2026-04-23 11:40 -41.54214 147.20593 583 ft 0 kts 289°